{"data":{"norad_id":52456,"intl_designator":"2022-049F","name":"STARLINK-3896","alt_names":[],"object_type":"PAYLOAD","status":"ACTIVE","operator":null,"country":"US","launch_date":"2022-05-06","launch_site_code":"AFETR","launch_vehicle":null,"mission":null,"orbit_class":"UNKNOWN","rcs_meters":null,"size_class":null,"mass_kg":null,"dimensions":null,"purposes":["comms"],"wikipedia_slug":null,"has_3d_model":false,"image_url":null,"decayed_at":null,"tle_current":{"epoch":"2026-09-19T11:48:41.671872Z","epoch_age_seconds":146774,"freshness":"FRESH","line1":"1 52456U 22049F   26262.49214898 -.00000325  00000+0  12893-5 0  9990","line2":"2 52456  53.1608 272.5894 0001380  82.7497 277.3661 15.31698835241450","mean_motion":15.31698835,"eccentricity":0.000138,"inclination_deg":53.1608,"raan_deg":272.5894,"arg_perigee_deg":82.7497,"mean_anomaly_deg":277.3661,"bstar":1.2893e-6,"rev_number":24145,"period_min":94.013259466898,"perigee_km":469.79832252764,"apogee_km":471.68861353682,"semimajor_km":6848.8804680322,"source":"CELESTRAK","updated_at":"2026-09-20T09:00:40.032483Z"}}}